Buena Vista, PA

10:08 AM EDT on November 01, 2014 (GMT -0400)
Washington County | Change Station
CLOSE
Current Station
Airport
Location: Washington,
Elevation: 1184 ft
Nearby Weather Stations

Elev 1184 ft 40.14 °N, 80.29 °W | Updated 33 minutes ago

Overcast
Overcast
41 °F
Feels Like 35 °F
N
9
Wind Variable Wind from North

Today
High -- | Low -- °F
--% Chance of Precip.
Yesterday
High -- | Low -- °F
Precip. -- in
7:48 AM 6:16 PM
Waxing Gibbous, 67% visible
Pressure 30.00 in
Visibility 10.0 miles
Clouds Mostly Cloudy 1000 ft
Overcast 1700 ft
Windchill 35 °F
Dew Point 37 °F
Humidity 87%
Rainfall 0.16 in
Snow Depth Not available.
UV 0 out of 12
Pollen .10 out of 12
Air Quality Not available.
Flu Activity Not available.
METAR KAFJ 011335Z AUTO 35008KT 320V020 10SM BKN010 OVC017 05/03 A3000 RMK AO1

More Conditions Fewer Conditions

Pressure 30.00 in
Visibility 10.0 miles
Clouds Mostly Cloudy 1000 ft
Overcast 1700 ft
Windchill 35 °F
Dew Point 37 °F
Humidity 87%
Rainfall 0.16 in
Snow Depth Not available.
UV 0 out of 12
Pollen .10 out of 12
Air Quality Not available.
Flu Activity Not available.
METAR KAFJ 011335Z AUTO 35008KT 320V020 10SM BKN010 OVC017 05/03 A3000 RMK AO1

More Conditions Fewer Conditions

10-Day Weather Forecast

Almanac

Astronomy

Nov. 01, 2014 Rise Set
Actual Time
Civil Twilight
Nautical Twilight
Astronomical Twilight
Moon
Length of Visible Light
Length of Day
Tomorrow will be .
, % of the Moon is Illuminated

Today's Extremes

State Highs State Lows

Community

WunderPhotos

Upload Photos

1,766,944 photos uploaded!

WunderBlogs® & News

Nearby

Air Quality

  Air Quality AQ Index Pollutant
Not available.

Snow Depth

Station Depth Elevation

Earthquake Activity

City Distance Mag. Time & Date
Minimum magnitude displayed is 2.5.

Coastal Water Temperatures

Place Temperature

Nearby Weather Stations